GW5276 Weather Reports


time (UTC)temp
F
wind
direction
speed
knots
gust
knots
rain 1hr
in
rain 24hr
in
rain mn
in
humidity
%
barometer
mb
20260505022934 51 227 0.0 0.0 0.00 0.00 0.00 91 1010.4
20260505022432 51 227 0.0 0.0 0.00 0.00 0.00 90 1010.5
20260505021928 52 227 0.0 0.0 0.00 0.00 0.00 90 1010.3
20260505021425 52 227 0.0 0.0 0.00 0.00 0.00 90 1010.3
20260505020920 52 227 0.0 0.0 0.00 0.00 0.00 89 1010.7
20260505020416 52 227 0.0 0.0 0.00 0.00 0.00 89 1010.7
20260505015913 53 227 0.0 0.0 0.00 0.00 0.00 89 1010.5
20260505015410 53 227 0.0 0.0 0.00 0.00 0.00 89 1010.8
20260505014908 53 227 0.0 0.0 0.00 0.00 0.00 89 1010.6
20260505014404 53 227 0.0 0.0 0.00 0.00 0.00 88 1010.6
20260505013901 54 227 0.0 0.0 0.00 0.00 0.00 87 1010.5
20260505013358 55 227 0.0 0.0 0.00 0.00 0.00 87 1010.6
20260505012856 55 227 0.0 0.0 0.00 0.00 0.00 86 1010.5
20260505012354 56 227 0.0 0.0 0.00 0.00 0.00 84 1010.7
20260505011850 56 227 0.0 0.0 0.00 0.00 0.00 85 1010.5
20260505011347 57 227 0.0 0.0 0.00 0.00 0.00 83 1010.5
20260505010843 58 227 0.0 0.0 0.00 0.00 0.00 81 1010.5
20260505010339 59 227 0.0 0.0 0.00 0.00 0.00 80 1010.4
20260505005835 59 227 0.0 0.0 0.00 0.00 0.00 79 1010.3
20260505005332 60 227 0.0 0.0 0.00 0.00 0.00 78 1010.3
20260505004830 60 227 0.0 0.0 0.00 0.00 0.00 75 1010.3
20260505004320 61 227 0.0 0.0 0.00 0.00 0.00 73 1010.3
20260505003818 62 227 0.0 0.0 0.00 0.00 0.00 73 1010.1
20260505003315 63 96 0.0 0.0 0.00 0.00 0.00 70 1010.3
20260505002811 63 96 0.0 0.0 0.00 0.00 0.00 68 1010.3
20260505002308 64 96 0.0 0.0 0.00 0.00 0.00 67 1010.2
20260505001807 65 95 0.0 0.0 0.00 0.00 0.00 64 1010.1
20260505001303 65 109 0.0 0.9 0.00 0.00 0.00 59 1010.4
20260505000801 66 220 0.0 0.0 0.00 0.00 0.00 58 1010.0
20260505000258 66 83 0.0 0.9 0.00 0.00 0.00 58 1010.3
20260504235754 67 98 0.0 1.7 0.00 0.00 0.00 58 1010.2
20260504235251 67 254 0.0 1.7 0.00 0.00 0.00 56 1010.1
20260504234748 68 81 0.9 0.9 0.00 0.00 0.00 56 1010.1
20260504234246 69 170 0.0 0.9 0.00 0.00 0.00 53 1010.0
20260504233742 69 227 0.9 2.6 0.00 0.00 0.00 53 1009.9
20260504233238 69 286 1.7 7.0 0.00 0.00 0.00 50 1009.9
20260504232735 69 260 0.0 2.6 0.00 0.00 0.00 52 1010.0
20260504232232 69 329 0.9 0.9 0.00 0.00 0.00 51 1009.9
20260504231729 69 78 0.0 1.7 0.00 0.00 0.00 51 1009.6
20260504231225 69 244 0.0 0.9 0.00 0.00 0.00 51 1010.0
20260504230721 70 259 3.5 5.2 0.00 0.00 0.00 51 1009.9
20260504230220 70 243 0.0 1.7 0.00 0.00 0.00 55 1009.8
20260504225718 72 295 0.0 1.7 0.00 0.00 0.00 48 1009.5
20260504225214 73 308 0.0 1.7 0.00 0.00 0.00 46 1009.8
20260504224711 73 319 0.9 1.7 0.00 0.00 0.00 45 1009.8
20260504224209 71 104 0.0 0.9 0.00 0.00 0.00 47 1010.0
20260504223705 70 258 0.0 2.6 0.00 0.00 0.00 49 1009.8
20260504223200 70 228 0.9 3.5 0.00 0.00 0.00 48 1010.2
20260504222658 71 273 6.1 9.6 0.00 0.00 0.00 46 1010.1
20260504222154 71 263 2.6 5.2 0.00 0.00 0.00 48 1010.2
20260504221651 71 314 0.9 6.1 0.00 0.00 0.00 46 1010.4
20260504221149 72 230 3.5 8.7 0.00 0.00 0.00 47 1010.3
20260504220645 73 253 5.2 6.1 0.00 0.00 0.00 48 1010.1
20260504220143 72 242 2.6 7.0 0.00 0.00 0.00 49 1010.1
20260504215639 71 222 2.6 2.6 0.00 0.00 0.00 47 1009.9
20260504215136 71 258 7.0 7.8 0.00 0.00 0.00 48 1009.8
20260504214632 71 221 4.3 6.1 0.00 0.00 0.00 48 1009.7
20260504214128 72 224 1.7 2.6 0.00 0.00 0.00 50 1009.8
20260504213624 73 250 2.6 5.2 0.00 0.00 0.00 47 1010.0
20260504213116 72 235 1.7 2.6 0.00 0.00 0.00 48 1009.7
20260504212612 71 278 3.5 5.2 0.00 0.00 0.00 48 1010.0
20260504212110 71 246 0.9 8.7 0.00 0.00 0.00 49 1009.9
20260504211607 70 229 1.7 3.5 0.00 0.00 0.00 49 1010.3
20260504211103 71 249 4.3 6.1 0.00 0.00 0.00 48 1010.1
20260504210601 71 264 4.3 7.8 0.00 0.00 0.00 47 1009.9
20260504210057 72 298 6.1 8.7 0.00 0.00 0.00 45 1009.9
20260504205555 72 236 2.6 7.8 0.00 0.00 0.00 45 1009.8
20260504205053 71 268 1.7 1.7 0.00 0.00 0.00 47 1009.8
20260504204550 71 264 3.5 6.1 0.00 0.00 0.00 48 1009.9
20260504204049 73 209 5.2 8.7 0.00 0.00 0.00 45 1009.9
20260504203547 73 266 1.7 3.5 0.00 0.00 0.00 45 1009.8
20260504203044 72 233 4.3 6.1 0.00 0.00 0.00 44 1009.7
20260504202539 71 246 0.9 3.5 0.00 0.00 0.00 45 1010.0
20260504202037 71 308 3.5 6.1 0.00 0.00 0.00 46 1010.0
20260504201533 71 240 4.3 7.8 0.00 0.00 0.00 47 1010.1
20260504201032 73 274 3.5 7.0 0.00 0.00 0.00 46 1009.9
20260504200527 73 266 2.6 11.3 0.00 0.00 0.00 45 1010.0
20260504200025 73 259 4.3 8.7 0.00 0.00 0.00 44 1009.9
20260504195520 73 256 1.7 7.0 0.00 0.00 0.00 44 1010.0
20260504195017 73 251 11.3 13.9 0.00 0.00 0.00 43 1010.1
20260504194514 74 300 7.8 13.0 0.00 0.00 0.00 44 1010.1
20260504194009 73 245 4.3 7.8 0.00 0.00 0.00 44 1010.0
20260504193506 72 259 8.7 9.6 0.00 0.00 0.00 45 1010.0
20260504193005 73 236 3.5 9.6 0.00 0.00 0.00 48 1009.9
20260504192502 71 275 1.7 3.5 0.00 0.00 0.00 45 1009.8
20260504192001 72 103 0.9 6.1 0.00 0.00 0.00 45 1010.3
20260504191458 71 232 3.5 9.6 0.00 0.00 0.00 49 1010.1
20260504190953 71 265 7.8 9.6 0.00 0.00 0.00 51 1010.5
20260504190449 71 223 3.5 8.7 0.00 0.00 0.00 48 1010.5
20260504185946 71 294 7.8 13.0 0.00 0.00 0.00 49 1010.4
20260504185444 71 233 2.6 13.0 0.00 0.00 0.00 46 1010.5
20260504184939 71 224 1.7 3.5 0.00 0.00 0.00 50 1010.5
20260504184436 71 258 7.8 12.2 0.00 0.00 0.00 46 1010.8
20260504183931 70 216 2.6 11.3 0.00 0.00 0.00 48 1010.9
20260504183429 70 259 2.6 3.5 0.00 0.00 0.00 48 1010.9
20260504182927 69 148 4.3 9.6 0.00 0.00 0.00 48 1011.0
20260504182423 69 214 4.3 13.0 0.00 0.00 0.00 49 1011.1
20260504181921 69 219 1.7 8.7 0.00 0.00 0.00 49 1011.2
20260504181418 69 248 5.2 12.2 0.00 0.00 0.00 51 1010.9
20260504180916 69 224 4.3 8.7 0.00 0.00 0.00 53 1011.0
20260504180415 69 288 12.2 13.9 0.00 0.00 0.00 53 1011.2
20260504175912 68 255 8.7 12.2 0.00 0.00 0.00 51 1011.4
20260504175409 69 289 5.2 11.3 0.00 0.00 0.00 56 1011.4
20260504174907 68 213 3.5 12.2 0.00 0.00 0.00 52 1011.5
20260504174404 68 319 3.5 8.7 0.00 0.00 0.00 52 1011.3
20260504173902 67 275 6.1 9.6 0.00 0.00 0.00 52 1011.6
20260504173358 69 281 3.5 5.2 0.00 0.00 0.00 56 1011.5
20260504172855 67 282 6.1 11.3 0.00 0.00 0.00 53 1011.5
20260504172351 67 94 3.5 13.0 0.00 0.00 0.00 51 1011.5
20260504171847 67 111 1.7 7.8 0.00 0.00 0.00 51 1011.6
20260504171345 69 224 3.5 3.5 0.00 0.00 0.00 54 1011.6
20260504170842 68 207 0.9 7.8 0.00 0.00 0.00 52 1012.1
20260504170338 68 238 7.0 8.7 0.00 0.00 0.00 55 1012.2
20260504160257 66 224 4.3 7.8 0.00 0.00 0.00 51 1012.9
20260504150722 66 313 7.0 7.8 0.00 0.00 0.00 46 1013.3
20260504150218 64 251 3.5 6.1 0.00 0.00 0.00 51 1013.2
20260504141148 62 207 4.3 9.6 0.00 0.00 0.00 50 1013.5
20260504140645 62 270 3.5 6.1 0.00 0.00 0.00 47 1013.4
20260504140140 62 247 5.2 7.8 0.00 0.00 0.00 47 1013.6
20260504130609 60 299 2.6 3.5 0.00 0.00 0.00 50 1013.5
20260504130106 59 254 0.9 3.5 0.00 0.00 0.00 53 1013.5
20260504110457 44 183 0.0 0.0 0.00 0.00 0.00 93 1014.3
20260504100418 44 183 0.0 0.0 0.00 0.00 0.00 94 1014.4
20260504081811 45 2 0.0 0.0 0.00 0.00 0.00 89 1015.2
20260504081308 45 2 0.0 0.0 0.00 0.00 0.00 89 1015.3
20260504080804 45 2 0.0 0.0 0.00 0.00 0.00 89 1015.2
20260504080301 45 16 0.0 0.0 0.00 0.00 0.00 89 1015.2
20260504070228 44 251 0.0 0.0 0.00 0.00 0.00 88 1015.2
20260504060149 44 251 0.0 0.0 0.00 0.00 0.00 87 1015.6
20260504050617 44 251 0.0 0.0 0.00 0.00 0.00 87 1015.6
20260504050114 44 251 0.0 0.0 0.00 0.00 0.00 87 1015.7
20260504045611 44 251 0.0 0.0 0.00 0.00 0.00 87 1015.6
20260504045106 44 251 0.0 0.0 0.00 0.00 0.00 86 1015.3
20260504044604 43 251 0.0 0.0 0.00 0.00 0.00 86 1015.7
20260504044100 44 251 0.0 0.0 0.00 0.00 0.00 86 1015.7
20260504043558 44 251 0.0 0.0 0.00 0.00 0.00 85 1015.6
20260504043055 44 251 0.0 0.0 0.00 0.00 0.00 85 1015.5
20260504042552 44 251 0.0 0.0 0.00 0.00 0.00 85 1015.7
20260504042044 44 251 0.0 0.0 0.00 0.00 0.00 85 1015.8
20260504041539 44 251 0.0 0.0 0.00 0.00 0.00 84 1015.6
20260504041036 44 251 0.0 0.0 0.00 0.00 0.00 85 1015.5
20260504040533 44 251 0.0 0.0 0.00 0.00 0.00 85 1015.6
20260504040030 44 251 0.0 0.0 0.00 0.00 0.00 85 1015.8
20260504035526 44 251 0.0 0.0 0.00 0.00 0.00 85 1015.7
20260504035023 43 251 0.0 0.0 0.00 0.00 0.00 85 1015.7
20260504034521 43 251 0.0 0.0 0.00 0.00 0.00 86 1015.9
20260504034018 43 251 0.0 0.0 0.00 0.00 0.00 86 1015.8
20260504033516 43 251 0.0 0.0 0.00 0.00 0.00 85 1015.7
20260504033013 43 251 0.0 0.0 0.00 0.00 0.00 85 1015.9
20260504032509 43 251 0.0 0.0 0.00 0.00 0.00 85 1015.8
20260504032006 42 251 0.0 0.0 0.00 0.00 0.00 86 1015.6
20260504031503 42 251 0.0 0.0 0.00 0.00 0.00 87 1015.8
20260504030959 42 251 0.0 0.0 0.00 0.00 0.00 87 1015.8
20260504030457 41 251 0.0 0.0 0.00 0.00 0.00 88 1015.9
20260504025952 41 251 0.0 0.0 0.00 0.00 0.00 88 1015.8
20260504025450 40 251 0.0 0.0 0.00 0.00 0.00 89 1015.9
20260504024947 41 251 0.0 0.0 0.00 0.00 0.00 88 1015.7
20260504024444 41 251 0.0 0.0 0.00 0.00 0.00 88 1016.0
20260504023940 40 251 0.0 0.0 0.00 0.00 0.00 88 1016.2
20260504023437 41 251 0.0 0.0 0.00 0.00 0.00 88 1016.0